Location: Brodie Road Observatory
(45.4241°N, 74.5431°W)
Time: 07:13:59
(UTC-04:00)

Daily predictions for brighter satellites

Satellite Brightness Start Highest point End
(mag) Time Altitude Azimuth Time Altitude Azimuth Time Altitude Azimuth
In-Cosmos 22 4.5 21:16:29 10° SSW 21:22:15 80° W 21:28:01 10° N
Envisat 3.0 21:18:32 10° SSE 21:23:37 79° ENE 21:28:43 10° N
Cosmos 304 Rocket 3.9 21:21:06 10° NNW 21:25:56 70° ENE 21:30:43 10° SSE
PSLV R/B 3.5 21:23:06 10° SSE 21:26:05 49° ENE 21:29:04 10° N
ERS-1 Rocket 3.6 21:22:45 10° S 21:27:42 58° W 21:32:42 10° NNW
Cosmos 1908 3.3 21:25:43 10° N 21:29:39 89° ESE 21:33:33 10° S
Cosmos 1437 3.4 21:27:08 10° SSE 21:30:12 38° E 21:33:18 10° NNE
MetOp-B 4.4 21:25:43 10° SSE 21:30:58 60° ENE 21:36:15 10° N
Meteor 2-20 4.5 21:24:59 10° S 21:31:08 81° E 21:37:17 10° N
Cosmos 2112 Rocket 4.2 21:26:57 10° NNW 21:32:11 66° ENE 21:37:25 10° SSE
ATLAS 3B R/B 4.5 21:27:53 10° NNW 21:33:40 25° NNE 21:39:09 10° ENE
Cosmos 1707 Rocket 4.4 21:30:08 10° N 21:34:06 34° ENE 21:38:05 10° SE
H-2A R/B 2.7 21:30:27 10° S 21:34:56 63° WSW 21:39:27 10° NNW
Cosmos 1777 Rocket 4.2 21:35:43 10° SSW 21:40:59 78° WNW 21:46:17 10° NNE
DELTA 2 R/B (1) 4.4 21:36:50 10° W 21:41:53 36° SSW 21:46:52 10° SE
NOSS 3-1 (C) 4.0 21:38:07 10° S 21:43:23 35° ESE 21:49:09 10° NE
Cosmos 1674 2.8 21:40:25 10° S 21:44:15 83° W 21:48:08 10° N
Cosmos 2227 Rocket 4.0 21:45:32 10° ESE 21:48:07 13° E 21:50:42 10° ENE
Cosmos 1939 Rocket 4.1 21:48:44 10° SSW 21:52:26 39° W 21:56:06 10° NNW
Cosmos 1300 3.0 21:49:45 10° N 21:53:31 50° ENE 21:56:54 12° SSE
Cosmos 1833 4.3 21:48:56 10° SSW 21:54:39 83° WNW 22:00:21 10° NNE
Cosmos 405 4.0 21:51:34 10° NNW 21:55:04 45° W 21:58:32 10° S
Cosmos 2333 Rocket 3.4 21:50:59 10° N 21:56:06 32° NE 22:01:11 10° ESE
SL-16 R/B 4.3 21:54:38 10° N 21:58:08 16° NE 22:01:38 10° E
Cosmos 1437 Rocket 4.5 21:56:30 10° NNW 21:59:51 30° W 22:03:13 10° SSW
H-2A R/B 3.0 21:58:30 12° SE 22:02:57 37° ENE 22:07:55 10° N
Terra 2.9 22:00:09 12° SE 22:03:51 31° ENE 22:08:00 10° N
YAOGAN 6 2.7 22:00:52 10° S 22:04:29 79° WSW 22:08:07 10° NNW
COSMOS 2428 2.7 22:02:23 10° NNW 22:08:06 85° ENE 22:13:00 14° SSE
Cosmos 1680 Rocket 4.1 22:03:54 10° NNW 22:09:00 53° WSW 22:14:07 10° S
CZ-4B R/B 3.5 22:05:48 10° NNE 22:11:06 76° ESE 22:16:19 10° S
SPOT 1/Viking Rocket 3.6 22:10:08 11° SSE 22:15:06 81° WSW 22:20:18 10° NNW
Cosmos 2297 Rocket 3.8 22:13:15 13° ESE 22:15:14 16° E 22:18:29 10° ENE
Cosmos 1455 3.7 22:13:03 10° NNE 22:16:07 22° ENE 22:18:08 15° ESE
CZ-4 R/B 3.9 22:15:25 10° NNE 22:20:22 67° ESE 22:25:12 10° S
Cosmos 2219 Rocket 2.5 22:15:01 10° NNW 22:20:33 57° ENE 22:24:46 17° SE
Cosmos 2242 Rocket 3.7 22:16:27 10° N 22:20:54 62° E 22:24:10 18° SSE
ARGOS 3.2 22:18:17 13° SSE 22:23:11 83° WSW 22:28:37 10° NNW
Cosmos 1898 Rocket 3.6 22:19:42 10° S 22:24:46 57° ESE 22:29:53 10° NNE
FALCON 9 R/B 4.5 21:58:10 10° WSW 22:26:32 51° S 22:33:41 12° ESE
CZ-4C R/B 3.0 22:26:41 22° SSE 22:28:49 72° ENE 22:32:18 10° N
Cosmos 2150 Rocket 4.1 22:23:43 10° S 22:29:06 65° ESE 22:34:32 10° NNE
Cosmos 1862 Rocket 4.3 22:28:39 10° N 22:32:43 37° ENE 22:35:04 21° SE
SAR-Lupe-2 4.2 22:31:50 22° SE 22:33:41 41° ENE 22:37:05 10° N
USA 245 3.7 22:32:06 15° SSW 22:33:46 29° W 22:35:53 10° NW
DELTA 2 DEB (DPAF) 4.1 22:31:49 19° SSE 22:35:03 89° E 22:39:34 10° NNW
SeaSat 1 4.2 22:32:49 10° E 22:36:43 24° NE 22:40:36 10° N
CARTOSAT-1 3.7 22:34:08 22° SSE 22:36:51 62° ENE 22:41:07 10° N
Cosmos 1980 4.0 22:32:06 10° NNW 22:37:40 57° ENE 22:41:31 20° SE
SL-08 RB Rocket 3.9 22:34:43 16° S 22:38:11 67° WSW 22:42:41 10° NNW
Sich 1 3.1 22:34:24 12° S 22:38:33 84° W 22:42:58 10° N
Cosmos 1726 2.7 22:36:40 10° NNW 22:40:22 55° W 22:43:05 17° SSW
Cosmos 1633 Rocket 3.1 22:36:53 13° S 22:40:49 84° W 22:45:13 10° N
Tiangong 1 2.8 22:41:28 10° SW 22:42:38 18° SSW 22:42:38 18° SSW
Cosmos 2219 3.7 22:38:30 10° SW 22:44:12 63° WNW 22:49:56 10° NNE
DMSP B5D2-2 4.3 22:39:21 10° NNE 22:44:29 52° E 22:47:49 21° S
Lacrosse 4 Rocket 3.4 22:41:31 10° N 22:45:02 23° NE 22:48:18 11° E
NOSS 3-1 (A) 3.4 22:40:39 10° SSW 22:46:32 73° ESE 22:53:07 10° NE
Cosmos 1271 Rocket 2.9 22:45:37 10° NNW 22:49:26 69° W 22:51:39 24° S
Cosmos 2237 Rocket 2.4 22:44:54 10° NNW 22:50:36 65° ENE 22:54:11 23° SE
SL-14 R/B 4.1 22:48:34 10° SSW 22:52:25 50° WNW 22:56:20 10° N
Cosmos 1703 3.2 22:50:01 21° S 22:52:32 89° W 22:56:29 10° N
Cosmos 2058 4.5 22:50:38 10° SW 22:54:21 33° WNW 22:58:06 10° N
Cosmos 2082 4.1 22:52:45 21° S 22:56:15 46° ESE 23:01:42 10° NE
USA 32 4.3 22:52:27 10° N 22:57:41 65° W 23:01:35 18° S
Cosmos 2360 Rocket 4.3 22:58:29 10° WNW 23:02:11 18° W 23:05:54 10° SW
COSMOS 2455 3.5 22:56:27 10° NNW 23:02:16 47° NE 23:06:26 19° ESE
Iridium 2 3.9 23:01:05 23° SSW 23:03:21 69° W 23:07:13 10° N
Meteor 2-10 4.4 22:59:08 10° NNW 23:04:48 70° W 23:08:40 21° S
Meteor 1-4 Rocket 3.8 23:04:16 10° NNW 23:07:46 36° W 23:09:49 20° SSW
ATLAS 2AS CENTAUR R/B 3.2 23:03:26 17° S 23:09:06 49° ESE 23:16:45 10° NE
ERBS 3.4 23:12:03 29° E 23:12:03 29° E 23:14:23 10° ENE
Nadezhda 1 Rocket 4.0 23:07:22 10° NNW 23:13:28 75° W 23:17:27 23° S
Cosmos 1933 3.8 23:15:34 10° N 23:19:31 49° ENE 23:20:45 36° SE
Cosmos 1626 2.2 23:20:37 34° SSW 23:22:09 77° W 23:25:56 10° N
IGS 5A 4.1 23:21:55 27° SSW 23:23:52 47° W 23:27:56 10° NNW
COS B Rocket 3.9 23:21:25 10° NNE 23:24:59 41° E 23:25:49 36° ESE
Cosmos 1937 Rocket 3.9 23:20:04 10° SSW 23:25:15 61° WNW 23:30:25 10° NNE
ATLAS 3B R/B 2.9 23:18:38 10° NW 23:25:45 69° NE 23:30:02 24° SE
Cosmos 1745 Rocket 4.5 23:22:21 13° SSW 23:27:49 58° WNW 23:33:55 10° N
Okean 1-7 3.8 23:26:50 10° N 23:30:51 38° ENE 23:32:05 31° ESE
Cosmos 2227 Rocket 2.1 23:27:04 19° SSW 23:31:17 88° ESE 23:36:59 10° NNE
Cosmos 1470 Rocket 4.3 23:28:46 20° SW 23:31:30 49° WNW 23:35:43 10° N
Cosmos 1933 Rocket 4.3 23:29:58 20° SSW 23:32:49 50° WNW 23:37:12 10° N
Cosmos 1703 Rocket 3.6 23:29:16 10° N 23:33:37 66° E 23:35:00 41° SE
NOSS 3-1 (C) 4.4 23:28:10 10° WSW 23:34:00 50° NW 23:40:33 10° NNE
Cosmos 1709 Rocket 3.9 23:32:45 29° S 23:36:05 78° E 23:42:12 10° N
Cosmos 990 Rocket 4.3 23:33:45 17° SSW 23:37:45 65° WNW 23:42:53 10° NNE
Cosmos 2221 Rocket 3.7 23:34:09 10° N 23:38:44 71° E 23:40:13 41° SSE
Cosmos 2333 Rocket 2.8 23:35:04 10° NW 23:40:33 47° WSW 23:43:13 28° SSW
Terra 3.1 23:39:02 20° SW 23:41:32 33° W 23:45:50 10° NNW
H-2A R/B 3.4 23:39:08 18° SSW 23:42:22 33° W 23:47:16 10° NNW
Cosmos 44 Rocket 4.5 23:42:25 27° ESE 23:42:41 27° ESE 23:47:01 10° NE
SL-16 R/B 2.2 23:37:33 10° NNW 23:43:16 76° ENE 23:45:52 34° SE
Cosmos 1269 Rocket 4.0 23:40:37 10° NNW 23:45:58 86° WSW 23:48:05 38° SSE
GEOS 3 Rocket 3.8 23:46:32 27° ESE 23:49:20 67° NE 23:54:30 10° NNW
CZ-4C R/B 4.1 23:43:29 10° NNW 23:49:38 35° NE 23:56:25 10° E
Cosmos 1455 3.8 23:48:37 10° NNW 23:51:50 26° W 23:53:11 21° WSW
Cosmos 1900 4.2 23:47:36 10° NW 23:52:36 82° WSW 23:54:15 43° SSE
